Regional Weather Roundup
Issued by NWS

Home | Current Version | Previous Version | Graphics & Text | Print | Product List | Glossary On
Versions: 1 2 3 4 5 6 7 8 9 10 11 12 13 14 15 16 17 18 19 20 21 22 23 24 25 26 27 28 29 30 31 32 33 34 35 36 37 38 39 40 41 42 43 44 45 46 47 48 49 50
000
ASUS43 KLOT 012203
RWRIL

ILLINOIS REGIONAL WEATHER ROUNDUP
NATIONAL WEATHER SERVICE CHICAGO/ROMEOVILLE IL
500 PM CDT SUN MAY 01 2016

NOTE: "FAIR" INDICATES FEW OR NO CLOUDS BELOW 12,000 FEET WITH NO
SIGNIFICANT WEATHER AND/OR OBSTRUCTIONS TO VISIBILITY.

* THESE STATIONS ARE NOT UNDER NWS QUALITY CONTROL. THEY ALSO MAY NOT
  REPORT WEATHER SUCH AS PRECIPITATION OR FOG.

ILZ001-002-007-009-015-016-024-012300-
NORTHWEST ILLINOIS

CITY           SKY/WX    TMP DP  RH WIND       PRES   REMARKS
MOLINE         LGT RAIN  51  47  86 NE9       29.97S FOG
STERLING*      CLOUDY    50  48  93 NE7       29.99R
$$

ILZ003-004-008-010-011-017-018-012300-
NORTH CENTRAL ILLINOIS

CITY           SKY/WX    TMP DP  RH WIND       PRES   REMARKS
ROCKFORD       CLOUDY    52  44  74 E17       30.01F
FREEPORT*      CLOUDY    52  45  76 E13       30.00F
ROCHELLE*      RAIN      49  46  92 NE14      29.99F
DE KALB*       CLOUDY    49  46  90 NE15      29.99F
$$

ILZ005-006-012>014-019>023-012300-
NORTHEAST ILLINOIS

CITY           SKY/WX    TMP DP  RH WIND       PRES   REMARKS
CHICAGO-OHARE  CLOUDY    48  44  86 NE13      29.99S
CHICAGO-MIDWAY CLOUDY    49  44  83 N13       29.98F
AURORA         CLOUDY    51  46  83 NE15      29.98F
LANSING*       CLOUDY    49  46  87 N7        29.97F
WAUKEGAN       CLOUDY    47  41  80 N8        30.01F
DUPAGE AIRPORT CLOUDY    49  43  80 NE14      29.98F
WHEELING       CLOUDY    47  43  86 NE12      30.01F
MORRIS*        CLOUDY    52  47  82 NE3       29.95F
NORTHERLY ISL    N/A     45  42  89 NW14        N/A
NORTHERLY ISL    N/A     45  42  89 NW14        N/A
$$

LMZ740>746-012300-
SOUTHERN LAKE MICHIGAN

STATION/POSITION SKY/WX   TEMP    WIND        PRES    VSBY  WAVE
                          AIR SEA DIR/SP/G                  HT/PER
                          (F)     (DEG/KT/KT) (MB)    (MI)  (FT/S)
SOUTHERN BUOY              42 40   20/ 10/ 10 1016.4          2/ 5
HARRISON CRIB              44     360/ 13/ 14   N/A
BURNHAM HARBOR             45     360/ 11/ 13   N/A
CALUMET HARBOR             45     330/  9/ 13 1015.2F
BURNS HARBOR               46      10/  8/ 10 1015.9S
MICHIGAN CITY              46      10/  5/  5   N/A
ST. JOSEPH                 48 48                N/A           2/ 5
$$

ILZ025>027-034>036-040-047-049-050-058-095>099-012300-
WEST-CENTRAL ILLINOIS

CITY           SKY/WX    TMP DP  RH WIND       PRES   REMARKS
QUINCY         CLOUDY    56  52  86 NW8       29.96R
MACOMB*        CLOUDY    53  52  97 NE6       29.97S FOG
PITTSFIELD*    CLOUDY    60  56  87 NW8       29.95R
$$

ILZ028>032-037-038-041>044-048-051>054-059>061-012300-
CENTRAL ILLINOIS

CITY           SKY/WX    TMP DP  RH WIND       PRES   REMARKS
BLOOMINGTON    CLOUDY    56  56 100 NE12      29.93S FOG
DECATUR        CLOUDY    68  59  73 SW9       29.88F
PEORIA         CLOUDY    54  49  83 NE6       29.94F HAZE
LINCOLN*       CLOUDY    59  57  92 N8        29.91S FOG
SPRINGFIELD    CLOUDY    61  58  90 NW7       29.92F FOG
TAYLORVILLE    NOT AVBL
$$

ILZ033-039-045-046-055>057-062-063-012300-
EAST-CENTRAL ILLINOIS

CITY           SKY/WX    TMP DP  RH WIND       PRES   REMARKS
CHAMPAIGN      CLOUDY    66  60  81 NE8       29.88F
MATTOON        PTSUNNY   71  59  65 W6        29.87F
$$

ILZ079-100>102-012300-
SOUTHWEST ILLINOIS

CITY           SKY/WX    TMP DP  RH WIND       PRES   REMARKS
ALTON          PTSUNNY   66  59  77 W5        29.90F
BELLEVILLE     MOSUNNY   75  60  59 SW3       29.87F
CAHOKIA*       PTSUNNY   73  57  57 W3        29.88F
SPARTA*        PTSUNNY   73  61  68 NW3       29.89S
$$

ILZ064>066-069>071-074>076-080>082-084>086-088>090-092>094-012300-
SOUTH-CENTRAL ILLINOIS

CITY           SKY/WX    TMP DP  RH WIND       PRES   REMARKS
CARBONDALE     MOSUNNY   77  61  57 SW7       29.87F
CAIRO*         MOSUNNY   79  65  63 SW10      29.88F HX  80
EFFINGHAM*     MOSUNNY   74  62  65 SW12      29.89S
MARION         PTSUNNY   79  63  57 SW9       29.89S HX  80
MT. VERNON     MOSUNNY   77  63  61 SW6       29.88F
SALEM*         MOSUNNY   74  61  65 W9        29.88S
$$

ILZ067-068-072-073-078-083-087-091-012300-
SOUTHEAST ILLINOIS

CITY           SKY/WX    TMP DP  RH WIND       PRES   REMARKS
LAWRENCEVILLE  MOSUNNY   78  62  57 VRB5      29.86F HX  80
FLORA*         MOSUNNY   78  62  58 SW8       29.88S HX  80
HARRISBURG*    PTSUNNY   77  63  61 S9        29.88F
ROBINSON*      MOSUNNY   76  62  61 CALM      29.87F
CARMI*         SUNNY     78  63  60 SW9       29.88R HX  80
$$

ABBREVIATIONS USED IN REMARKS
   TC - TEMPERATURE IN CELSIUS
  WCI - WIND CHILL INDEX
   HX - HEAT INDEX
  VSB - VISIBILITY
$$





USA.gov is the U.S. government's official web portal to all federal, state and local government web resources and services.